Content
SEND FEEDBACK

Daily
Averages
Monthly
Summary
Australia

LISMORE, NEW SOUTH WALES


Home > Oceania > Australia > New South Wales
Elevation: 36 feet     Latitude: 28 48S     Longitude: 153 15E

WEATHER
 
SELECT A DAY
Number of Records: 190,846;   Date Range: 10/20/03 - 8/31/14
 
SHARE

PRINT THIS DATA

[ ← Previous Day ]
WEATHER ALMANAC - JANUARY 3, 2013
[ Next Day → ]
[ °C ]   °F
Weather ElementAverageHighLow
Temperature77 °F82.4 °F (10:00 am)73.4 °F (2:00 am)
Dewpoint63.8 °F68 °F (12:00 am)60.8 °F (9:00 am)
Humidity63.1 %83 % (2:30 am)43 % (3:00 pm)
Barometer29.97 in30.01 in (7:30 am)29.92 in (1:00 am)
Wind Speed15.8 mph21.9 mph (1:00 pm)
Weather ElementAverage
Visibility6.2 mi
Wind DirectionSSE (164.4 °)

Weather ElementTotal
Precipitation---
Cooling Degree Days12.9 (Base 65)
Growing Degree Days27.9 (Base 50)
Averaged from 55 records on January 3, 2013
WEATHER CONDITIONS BREAKOUT
WIND DIRECTION BREAKOUT
WEATHER BY HOUR - JANUARY 3, 2013
[ °C ]   °F
Local TimeTemperatureDewpointHumidityBarometerVisibilityWind DirectionWind SpeedGust SpeedPrecipitationEventsConditions
12:00 AM75.2 °F68.0 °F78 %29.95 in6.2 miSouth (180°)12.7 mphMostly Cloudy
12:30 AM75.2 °F68.0 °F78 %29.95 in6.2 miSouth (190°)12.7 mphScattered Clouds
1:00 AM75.2 °F68.0 °F78 %29.92 in6.2 miSouth (190°)13.8 mphMostly Cloudy
1:30 AM75.2 °F68.0 °F78 %29.92 in6.2 miSouth (180°)12.7 mphOvercast
2:00 AM73.4 °F66.2 °F78 %29.92 in6.2 miSouth (190°)11.5 mphMostly Cloudy
2:30 AM73.4 °F68.0 °F83 %29.92 in6.2 miSouth (190°)10.4 mphOvercast
3:00 AM73.4 °F66.2 °F78 %29.92 in6.2 miSouth (190°)11.5 mphOvercast
3:00 AM74.0 °F67.0 °F71 %29.94 inSouth (190°)11.5 mphOvercast
3:30 AM73.4 °F66.2 °F78 %29.92 in6.2 miSouth (190°)12.7 mphOvercast
4:00 AM73.4 °F66.2 °F78 %29.95 in6.2 miSouth (190°)12.7 mphOvercast
4:30 AM73.4 °F66.2 °F78 %29.95 in6.2 miSouth (180°)11.5 mphOvercast
5:00 AM73.4 °F64.4 °F73 %29.95 in6.2 miSouth (180°)12.7 mphScattered Clouds
5:30 AM73.4 °F64.4 °F73 %29.95 in6.2 miSouth (180°)12.7 mphMostly Cloudy
6:00 AM73.4 °F64.4 °F73 %29.98 in6.2 miSouth (190°)11.5 mphScattered Clouds
6:00 AM74.0 °F64.0 °F63 %29.98 inSouth (190°)11.5 mph
6:30 AM73.4 °F64.4 °F73 %29.98 in6.2 miSouth (190°)12.7 mphScattered Clouds
7:00 AM75.2 °F64.4 °F69 %29.98 in6.2 miSouth (190°)11.5 mphMostly Cloudy
7:30 AM77.0 °F64.4 °F65 %30.01 in6.2 miSouth (170°)13.8 mphMostly Cloudy
8:00 AM78.8 °F66.2 °F65 %29.98 in6.2 miSouth (190°)15.0 mphOvercast
8:30 AM77.0 °F64.4 °F65 %30.01 in6.2 miSouth (170°)18.4 mphMostly Cloudy
9:00 AM78.8 °F60.8 °F54 %30.01 in6.2 miSouth (170°)18.4 mphScattered Clouds
9:00 AM78.0 °F61.0 °F46 %30.00 inSouth (170°)18.4 mph
9:30 AM80.6 °F62.6 °F54 %29.98 in6.2 miSSE (160°)20.7 mphMostly Cloudy
10:00 AM82.4 °F64.4 °F54 %29.98 in6.2 miSSE (160°)17.3 mphMostly Cloudy
10:30 AM80.6 °F62.6 °F54 %29.98 in6.2 miSouth (170°)17.3 mphMostly Cloudy
11:00 AM82.4 °F64.4 °F54 %29.98 in6.2 miSouth (170°)16.1 mphOvercast
11:30 AM82.4 °F64.4 °F54 %29.98 in6.2 miSSE (160°)20.7 mphMostly Cloudy
12:00 PM82.4 °F64.4 °F54 %29.98 in6.2 miSSE (150°)20.7 mphScattered Clouds
12:00 PM82.0 °F64.0 °F44 %29.98 inSSE (150°)20.7 mph
12:30 PM82.4 °F64.4 °F54 %29.98 in6.2 miSSE (150°)19.6 mphMostly Cloudy
1:00 PM82.4 °F64.4 °F54 %29.95 in6.2 miSSE (150°)21.9 mphScattered Clouds
1:30 PM82.4 °F62.6 °F51 %29.95 in6.2 miSSE (150°)18.4 mph
2:00 PM82.4 °F62.6 °F51 %29.95 in6.2 miSE (140°)20.7 mphScattered Clouds
2:30 PM82.4 °F62.6 °F51 %29.95 in6.2 miSE (140°)20.7 mphScattered Clouds
3:00 PM80.6 °F62.6 °F54 %29.95 in6.2 miSSE (150°)21.9 mphScattered Clouds
3:00 PM81.0 °F62.0 °F43 %29.95 inSSE (150°)21.9 mph
3:30 PM80.6 °F62.6 °F54 %29.95 in6.2 miSE (140°)20.7 mphScattered Clouds
4:00 PM78.8 °F64.4 °F61 %29.95 in6.2 miSSE (150°)18.4 mphScattered Clouds
4:30 PM77.0 °F64.4 °F65 %29.95 in6.2 miSSE (150°)18.4 mphOvercast
5:00 PM77.0 °F62.6 °F61 %29.95 in6.2 miSSE (150°)19.6 mphMostly Cloudy
5:30 PM77.0 °F62.6 °F61 %29.95 in6.2 miSSE (150°)20.7 mphMostly Cloudy
6:00 PM75.2 °F62.6 °F65 %29.98 in6.2 miSSE (150°)18.4 mphMostly Cloudy
6:00 PM76.0 °F62.0 °F53 %29.98 inSSE (150°)18.4 mph
6:30 PM75.2 °F62.6 °F65 %29.98 in6.2 miSSE (150°)16.1 mph
7:00 PM75.2 °F60.8 °F61 %29.98 in6.2 miSSE (150°)15.0 mphMostly Cloudy
7:30 PM75.2 °F60.8 °F61 %29.98 in6.2 miSE (140°)15.0 mphMostly Cloudy
8:00 PM75.2 °F62.6 °F65 %29.98 in6.2 miSSE (150°)13.8 mphMostly Cloudy
8:30 PM75.2 °F62.6 °F65 %30.01 in6.2 miSSE (150°)15.0 mphOvercast
9:00 PM75.2 °F62.6 °F65 %30.01 in6.2 miSSE (150°)13.8 mphOvercast
9:00 PM75.0 °F62.0 °F55 %30.01 inSSE (150°)13.8 mphOvercast
9:30 PM75.2 °F60.8 °F61 %30.01 in6.2 miSSE (150°)13.8 mphOvercast
10:00 PM75.2 °F60.8 °F61 %30.01 in6.2 miSSE (150°)11.5 mphOvercast
10:30 PM75.2 °F60.8 °F61 %30.01 in6.2 miSSE (150°)13.8 mphOvercast
11:00 PM75.2 °F62.6 °F65 %30.01 in6.2 miSSE (150°)10.4 mphOvercast
11:30 PM73.4 °F60.8 °F65 %30.01 in6.2 miSSE (160°)11.5 mphOvercast
Hourly data recorded from YLIS, located miles away from Lismore, New South Wales







STORIES FROM OUR PARTNERS